Tiempo cada hora Dacha

Hoy, 25 Junio, Viernes

Tiempo Temperatura Precipitaciones Viento Presión Humedad
00:00 +23°C° 0 mm 2 mps 748 mmHg 74%
01:00 +23°C° 0 mm 2 mps 748 mmHg 78%
02:00 +21°C° 0 mm 2 mps 748 mmHg 83%
03:00 +21°C° 1.2 mm 2 mps 748 mmHg 85%
04:00 +21°C° 1.2 mm 2 mps 748 mmHg 88%
05:00 +20°C° 1.2 mm 2 mps 748 mmHg 90%
06:00 +23°C° 0.1 mm 2 mps 748 mmHg 85%
07:00 +25°C° 0.1 mm 2 mps 747 mmHg 80%
08:00 +26°C° 0.1 mm 2 mps 747 mmHg 75%
09:00 +28°C° 0 mm 3 mps 747 mmHg 68%
10:00 +30°C° 0 mm 4 mps 747 mmHg 62%
11:00 +32°C° 0 mm 4 mps 747 mmHg 55%
12:00 +33°C° 0 mm 4 mps 747 mmHg 52%
13:00 +34°C° 0 mm 4 mps 747 mmHg 49%
14:00 +35°C° 0 mm 4 mps 747 mmHg 46%
15:00 +34°C° 0 mm 4 mps 746 mmHg 48%
16:00 +34°C° 0 mm 3 mps 745 mmHg 51%
17:00 +34°C° 0 mm 3 mps 745 mmHg 53%
18:00 +29°C° 3.3 mm 4 mps 745 mmHg 65%
19:00 +25°C° 3.3 mm 4 mps 746 mmHg 77%
20:00 +21°C° 3.3 mm 5 mps 746 mmHg 89%
21:00 +21°C° 2.1 mm 4 mps 746 mmHg 90%
22:00 +20°C° 2.1 mm 4 mps 746 mmHg 91%
23:00 +20°C° 2.1 mm 3 mps 746 mmHg 91%

Mañana, 26 Junio, Sábado

Tiempo Temperatura Precipitaciones Viento Presión Humedad
00:00 +20°C° 0 mm 3 mps 746 mmHg 92%
01:00 +19°C° 0 mm 2 mps 745 mmHg 92%
02:00 +19°C° 0 mm 2 mps 745 mmHg 93%
03:00 +19°C° 0 mm 2 mps 745 mmHg 93%
04:00 +19°C° 0 mm 2 mps 745 mmHg 93%
05:00 +19°C° 0 mm 2 mps 746 mmHg 94%
06:00 +20°C° 0 mm 2 mps 746 mmHg 88%
07:00 +23°C° 0 mm 2 mps 746 mmHg 82%
08:00 +24°C° 0 mm 2 mps 746 mmHg 77%
09:00 +25°C° 0 mm 2 mps 746 mmHg 71%
10:00 +27°C° 0 mm 2 mps 746 mmHg 64%
11:00 +28°C° 0 mm 2 mps 746 mmHg 58%
12:00 +29°C° 0 mm 2 mps 746 mmHg 57%
13:00 +30°C° 0 mm 2 mps 746 mmHg 55%
14:00 +30°C° 0 mm 2 mps 746 mmHg 54%
15:00 +30°C° 0 mm 2 mps 745 mmHg 57%
16:00 +29°C° 0 mm 3 mps 745 mmHg 60%
17:00 +29°C° 0 mm 3 mps 744 mmHg 63%
18:00 +27°C° 0.4 mm 3 mps 744 mmHg 71%
19:00 +26°C° 0.4 mm 3 mps 744 mmHg 79%
20:00 +24°C° 0.4 mm 3 mps 744 mmHg 86%
21:00 +23°C° 5.9 mm 2 mps 745 mmHg 90%
22:00 +21°C° 5.9 mm 2 mps 745 mmHg 94%
23:00 +20°C° 5.9 mm 2 mps 745 mmHg 98%

Pasado mañana, 27 Junio, Domingo

Tiempo Temperatura Precipitaciones Viento Presión Humedad
00:00 +20°C° 2 mm 2 mps 745 mmHg 98%
01:00 +20°C° 2 mm 2 mps 744 mmHg 98%
02:00 +20°C° 2 mm 3 mps 744 mmHg 97%
03:00 +20°C° 1.4 mm 3 mps 744 mmHg 97%
04:00 +20°C° 1.4 mm 3 mps 744 mmHg 97%
05:00 +20°C° 1.4 mm 3 mps 744 mmHg 97%
06:00 +20°C° 0.2 mm 3 mps 744 mmHg 96%
07:00 +20°C° 0.2 mm 3 mps 745 mmHg 96%
08:00 +20°C° 0.2 mm 4 mps 745 mmHg 95%
09:00 +21°C° 0 mm 4 mps 745 mmHg 89%
10:00 +22°C° 0 mm 4 mps 745 mmHg 84%
11:00 +23°C° 0 mm 4 mps 745 mmHg 79%
12:00 +23°C° 0 mm 4 mps 745 mmHg 76%
13:00 +23°C° 0 mm 5 mps 745 mmHg 74%
14:00 +25°C° 0 mm 5 mps 746 mmHg 72%
15:00 +23°C° 0 mm 5 mps 745 mmHg 72%
16:00 +23°C° 0 mm 5 mps 745 mmHg 72%
17:00 +23°C° 0 mm 5 mps 745 mmHg 72%
18:00 +22°C° 0 mm 4 mps 745 mmHg 78%
19:00 +21°C° 0 mm 3 mps 745 mmHg 83%
20:00 +20°C° 0 mm 3 mps 745 mmHg 89%
21:00 +19°C° 0 mm 3 mps 745 mmHg 91%
22:00 +18°C° 0 mm 3 mps 745 mmHg 93%
23:00 +18°C° 0 mm 3 mps 745 mmHg 95%

28 Junio, Lunes

Tiempo Temperatura Precipitaciones Viento Presión Humedad
00:00 +18°C° 0 mm 3 mps 745 mmHg 94%
01:00 +17°C° 0 mm 3 mps 745 mmHg 92%
02:00 +17°C° 0 mm 3 mps 745 mmHg 90%
03:00 +17°C° 0 mm 4 mps 745 mmHg 89%
04:00 +17°C° 0 mm 4 mps 745 mmHg 88%
05:00 +17°C° 0 mm 4 mps 745 mmHg 87%
06:00 +18°C° 0 mm 4 mps 745 mmHg 84%
07:00 +19°C° 0 mm 4 mps 745 mmHg 81%
08:00 +19°C° 0 mm 5 mps 745 mmHg 79%
09:00 +20°C° 0 mm 5 mps 745 mmHg 75%
10:00 +21°C° 0 mm 5 mps 745 mmHg 72%
11:00 +22°C° 0 mm 5 mps 745 mmHg 69%
12:00 +22°C° 0 mm 5 mps 745 mmHg 68%
13:00 +22°C° 0 mm 5 mps 745 mmHg 67%
14:00 +23°C° 0 mm 5 mps 745 mmHg 66%
15:00 +22°C° 0 mm 4 mps 745 mmHg 68%
16:00 +22°C° 0 mm 4 mps 745 mmHg 71%
17:00 +22°C° 0 mm 3 mps 745 mmHg 73%
18:00 +21°C° 0 mm 3 mps 745 mmHg 76%
19:00 +20°C° 0 mm 3 mps 745 mmHg 79%
20:00 +19°C° 0 mm 3 mps 745 mmHg 82%
21:00 +19°C° 0 mm 3 mps 745 mmHg 83%
22:00 +18°C° 0 mm 3 mps 745 mmHg 85%
23:00 +17°C° 0 mm 3 mps 745 mmHg 86%

29 Junio, Martes

Tiempo Temperatura Precipitaciones Viento Presión Humedad
00:00 +17°C° 0 mm 3 mps 744 mmHg 86%
01:00 +17°C° 0 mm 3 mps 744 mmHg 86%
02:00 +17°C° 0 mm 3 mps 744 mmHg 85%
03:00 +17°C° 0 mm 3 mps 744 mmHg 87%
04:00 +16°C° 0 mm 3 mps 744 mmHg 88%
05:00 +16°C° 0 mm 3 mps 744 mmHg 90%
06:00 +18°C° 0.1 mm 3 mps 744 mmHg 85%
07:00 +19°C° 0.1 mm 3 mps 744 mmHg 81%
08:00 +20°C° 0.1 mm 4 mps 744 mmHg 77%
09:00 +20°C° 0.9 mm 4 mps 744 mmHg 78%
10:00 +20°C° 0.9 mm 3 mps 744 mmHg 79%
11:00 +20°C° 0.9 mm 3 mps 744 mmHg 80%
12:00 +21°C° 0.8 mm 3 mps 744 mmHg 79%
13:00 +21°C° 0.8 mm 3 mps 744 mmHg 77%
14:00 +22°C° 0.8 mm 3 mps 744 mmHg 75%
15:00 +22°C° 0.8 mm 3 mps 744 mmHg 77%
16:00 +21°C° 0.8 mm 3 mps 744 mmHg 78%
17:00 +21°C° 0.8 mm 3 mps 744 mmHg 79%
18:00 +20°C° 0.3 mm 3 mps 744 mmHg 82%
19:00 +20°C° 0.3 mm 3 mps 743 mmHg 84%
20:00 +19°C° 0.3 mm 3 mps 743 mmHg 86%
21:00 +18°C° 0 mm 3 mps 743 mmHg 88%
22:00 +17°C° 0 mm 3 mps 743 mmHg 90%
23:00 +17°C° 0 mm 3 mps 743 mmHg 92%

30 Junio, Miércoles

Tiempo Temperatura Precipitaciones Viento Presión Humedad
00:00 +17°C° 0 mm 3 mps 743 mmHg 93%
01:00 +16°C° 0 mm 3 mps 743 mmHg 93%
02:00 +16°C° 0 mm 3 mps 743 mmHg 93%
03:00 +16°C° 0 mm 3 mps 743 mmHg 94%
04:00 +16°C° 0 mm 3 mps 743 mmHg 94%
05:00 +16°C° 0 mm 3 mps 743 mmHg 94%
06:00 +18°C° 0 mm 3 mps 743 mmHg 87%
07:00 +20°C° 0 mm 3 mps 743 mmHg 81%
08:00 +22°C° 0 mm 3 mps 744 mmHg 74%
09:00 +22°C° 0 mm 3 mps 743 mmHg 73%
10:00 +24°C° 0 mm 3 mps 743 mmHg 71%
11:00 +24°C° 0 mm 3 mps 743 mmHg 69%
12:00 +25°C° 0 mm 3 mps 743 mmHg 65%
13:00 +27°C° 0 mm 3 mps 743 mmHg 60%
14:00 +28°C° 0 mm 4 mps 743 mmHg 56%
15:00 +28°C° 0.2 mm 3 mps 743 mmHg 60%
16:00 +27°C° 0.2 mm 3 mps 742 mmHg 64%
17:00 +27°C° 0.2 mm 3 mps 742 mmHg 67%
18:00 +25°C° 0.8 mm 3 mps 742 mmHg 75%
19:00 +23°C° 0.8 mm 2 mps 742 mmHg 83%
20:00 +20°C° 0.8 mm 2 mps 742 mmHg 91%
21:00 +19°C° 1 mm 2 mps 742 mmHg 92%
22:00 +19°C° 1 mm 2 mps 741 mmHg 94%
23:00 +18°C° 1 mm 2 mps 741 mmHg 96%
Mostrar más

Necesitamos Su Consentimiento

Meteoprog y nuestros Proveedores de Servicios pueden almacenar y acceder a sus datos personales como cookies, identificadores de dispositivo u otras tecnologías similares de su dispositivo y procesar dichos datos para personalizar contenido y anuncios, además de ofrecer funciones de redes sociales y analizar el tráfico.

  • Almacenar y/o acceder a información en su dispositivo

    Se puede almacenar o acceder a cookies, identificadores de dispositivo u otra información de su dispositivo para los fines anteriormente indicados.

  • Anuncios y contenido personalizados, medición de anuncios y contenido, percepciones del público, y desarrollo de productos

    Los anuncios y el contenido pueden personalizarse en base a su perfil. Se pueden añadir más datos para personalizar mejor los anuncios y contenidos. Se puede medir el rendimiento de los anuncios y contenidos. Se puede obtener la percepción sobre el público que ha visto los anuncios y contenidos. Dichos datos pueden usarse para desarrollar o mejorar la experiencia del usuario, sistemas y software.

Al hacer clic en ‘Estoy De Acuerdo’ usted permitirá el uso de las cookies, identificadores de dispositivo, balizas web u otras tecnologías similares indicadas. Su configuración puede cambiarse desde el navegador de su dispositivo.

Para ciertos fines, los intereses legítimos pueden ser considerados por encima del consentimiento. Puede leer más sobre ello en nuestra Política de Privacidad y Cookies.